Location: Unspecified
(0.0000°N, 0.0000°E)
Time: 17:53:42
(UTC+00:00)

Altair - Visible Passes

Search period start: 09 February 2016 00:00
Search period end: 19 February 2016 00:00
Orbit: 1501 x 1683 km, 47.2° (Epoch: 07 February)

Date Brightness Start Highest point End Pass type
(mag) Time Alt. Az. Time Alt. Az. Time Alt. Az.
09 Feb 9.6 02:04:04 14° E 02:04:04 14° E 02:05:38 10° E visible
09 Feb 7.3 04:02:09 65° WNW 04:03:47 80° SW 04:13:14 10° SE visible
10 Feb 7.4 03:38:56 85° SSE 03:38:56 85° SSE 03:48:08 10° SE visible
10 Feb 8.9 05:37:51 10° W 05:43:25 17° SW 05:48:55 10° S visible
11 Feb 7.8 03:15:41 60° SE 03:15:41 60° SE 03:23:01 10° SE visible
11 Feb 8.8 05:13:44 14° W 05:18:12 19° SW 05:24:27 10° S visible
12 Feb 8.4 02:52:23 40° SE 02:52:23 40° SE 02:57:51 10° SE visible
12 Feb 8.6 04:50:26 20° WSW 04:53:00 22° SW 04:59:52 10° S visible
13 Feb 8.9 02:29:02 27° SE 02:29:02 27° SE 02:32:40 10° SE visible
13 Feb 8.5 04:27:05 25° SW 04:27:47 25° SW 04:35:11 10° S visible
14 Feb 9.4 02:05:38 17° SE 02:05:38 17° SE 02:07:26 10° SE visible
14 Feb 8.5 04:03:40 28° SW 04:03:40 28° SW 04:10:26 10° S visible
15 Feb 8.6 03:40:13 28° SSW 03:40:13 28° SSW 03:45:39 10° S visible
16 Feb 8.8 03:16:43 25° S 03:16:43 25° S 03:20:49 10° SSE visible
17 Feb 9.1 02:53:10 20° S 02:53:10 20° S 02:55:56 10° SSE visible
18 Feb 9.4 02:29:33 15° SSE 02:29:33 15° SSE 02:31:01 10° SSE visible
